This demonstration page uses our WeatherBlox Daily Observations layout. Learn more.

Left ArrowRight Arrow

36.17497, -115.13722

Hourly Observations for August 2, 2020

Temp ( °F °C ) Dew Point ( °F °C ) Humidity (%) Winds ( mph kmh ) Pressure ( in mb ) Visibility ( mi km ) Precip ( " mm )
12:53 am 00:53 Clear 89 31.7 25 -3.9 10 10 VRB 6 9 29.80 1009 10 16 N/A
1:53 am 01:53 Clear 88 31.1 25 -3.9 10 10 WNW 3 6 29.80 1009 10 16 N/A
2:53 am 02:53 Clear 87 30.6 26 -3.3 11 11 W 7 11 29.81 1010 10 16 N/A
3:53 am 03:53 Clear 85 29.4 24 -4.4 11 11 W 5 7 29.82 1010 10 16 N/A
4:53 am 04:53 Clear 81 27.2 24 -4.4 12 12 NNW 3 6 29.84 1011 10 16 N/A
5:53 am 05:53 Sunny 80 26.7 29 -1.7 15 15 WNW 3 6 29.86 1011 10 16 N/A
6:53 am 06:53 Sunny 82 27.8 28 -2.2 14 14 WNW 6 9 29.88 1012 10 16 N/A
7:53 am 07:53 Sunny 86 30 31 -0.6 14 14 NW 6 9 29.89 1012 10 16 N/A
8:53 am 08:53 Sunny 91 32.8 27 -2.8 10 10 VRB 3 6 29.90 1013 10 16 N/A
9:53 am 09:53 Sunny 97 36.1 25 -3.9 7 7 VRB 7 11 29.89 1012 10 16 N/A
10:53 am 10:53 Sunny 103 39.4 11 -11.7 3 3 SSE 16 26 29.88 1012 10 16 N/A
11:53 am 11:53 Sunny 105 40.6 11 -11.7 3 3 SSE 15 24 29.86 1011 10 16 N/A
12:53 pm 12:53 Sunny 107 41.7 11 -11.7 3 3 SSE 13 20 29.85 1011 10 16 N/A
1:53 pm 13:53 Sunny 109 42.8 8 -13.3 2 2 SSW 20 31 29.83 1010 10 16 N/A
2:53 pm 14:53 Sunny 109 42.8 6 -14.4 2 2 S 13 20 29.81 1010 10 16 N/A
3:53 pm 15:53 Sunny 109 42.8 3 -16.1 2 2 SW 14 22 29.79 1009 10 16 N/A
4:53 pm 16:53 Sunny 109 42.8 8 -13.3 2 2 SSW 16 26 29.78 1009 10 16 N/A
5:53 pm 17:53 Sunny 108 42.2 8 -13.3 2 2 SSW 12 19 29.77 1008 10 16 N/A
6:53 pm 18:53 Sunny 106 41.1 20 -6.7 5 5 S 13 20 29.76 1008 10 16 N/A
7:53 pm 19:53 Clear 102 38.9 22 -5.6 6 6 S 9 15 29.76 1008 10 16 N/A
8:53 pm 20:53 Clear 99 37.2 24 -4.4 7 7 S 8 13 29.78 1008 10 16 N/A
9:53 pm 21:53 Clear 97 36.1 24 -4.4 7 7 SW 6 9 29.78 1009 10 16 N/A
10:53 pm 22:53 Clear 94 34.4 27 -2.8 9 9 W 5 7 29.79 1009 10 16 N/A
11:53 pm 23:53 Clear 89 31.7 30 -1.1 12 12 N N/A 29.80 1009 10 16 N/A

Powered by AerisWeather